K5MJM Weather Reports


time (UTC)temp
F
wind
direction
speed
knots
gust
knots
rain 1hr
in
rain 24hr
in
rain mn
in
humidity
%
barometer
mb
20260506050919 49 45 7.8 9.6 0.00 0.00 0.00 61 1014.0
20260506044918 49 23 5.2 7.8 0.00 0.00 0.00 62 1013.7
20260506043918 49 45 5.2 7.8 0.00 0.00 0.00 63 1013.9
20260506042918 49 45 7.0 12.2 0.00 0.00 0.00 63 1014.0
20260506041918 49 45 6.1 9.6 0.00 0.00 0.00 63 1014.1
20260506040918 49 45 8.7 12.2 0.00 0.00 0.00 63 1013.9
20260506035918 49 68 7.0 12.2 0.00 0.00 0.00 64 1013.9
20260506034918 49 23 9.6 12.2 0.00 0.00 0.00 65 1013.8
20260506033938 49 23 7.0 11.3 0.00 0.00 0.00 66 1013.7
20260506032919 49 23 7.8 11.3 0.00 0.00 0.00 67 1013.8
20260506031917 49 23 7.8 9.6 0.00 0.00 0.00 68 1013.3
20260506030918 49 45 5.2 7.8 0.00 0.00 0.00 68 1012.6
20260506025918 49 45 13.9 16.5 0.00 0.00 0.00 69 1012.6
20260506024918 49 45 10.4 13.9 0.00 0.00 0.00 70 1012.9
20260506023918 49 0 8.7 11.3 0.00 0.00 0.00 70 1013.1
20260506022958 49 23 9.6 13.0 0.00 0.00 0.00 71 1013.1
20260506021918 49 0 8.7 11.3 0.00 0.00 0.00 71 1013.2
20260506020917 49 23 11.3 14.8 0.00 0.00 0.00 71 1013.2
20260506015918 49 23 7.8 10.4 0.00 0.00 0.00 70 1013.1
20260506014918 49 23 12.2 15.6 0.00 0.00 0.00 70 1012.9
20260506013938 49 23 7.8 13.9 0.00 0.00 0.00 69 1012.8
20260506012917 49 0 10.4 13.9 0.00 0.00 0.00 69 1012.7
20260506011918 49 23 9.6 12.2 0.00 0.00 0.00 69 1012.5
20260506010917 50 23 8.7 11.3 0.00 0.00 0.00 69 1012.4
20260506005918 50 0 9.6 12.2 0.00 0.00 0.00 69 1012.2
20260506004918 50 0 10.4 13.9 0.00 0.00 0.00 69 1011.8
20260506003959 50 0 7.8 11.3 0.00 0.00 0.00 69 1011.3
20260506002938 50 23 6.1 11.3 0.00 0.00 0.00 68 1011.3
20260506001917 50 0 12.2 17.4 0.00 0.00 0.00 68 1011.1
20260506000918 51 23 10.4 14.8 0.00 0.00 0.00 67 1010.9
20260505235938 51 23 7.0 9.6 0.00 0.00 0.00 67 1011.0
20260505234938 51 0 9.6 13.0 0.00 0.00 0.00 66 1010.8
20260505233918 51 23 7.0 12.2 0.00 0.00 0.00 66 1010.7
20260505232919 51 0 13.0 18.2 0.00 0.00 0.00 66 1011.0
20260505231918 51 23 8.7 11.3 0.00 0.00 0.00 66 1011.4
20260505230929 51 23 10.4 13.0 0.00 0.00 0.00 66 1011.2
20260505225938 52 0 8.7 13.0 0.00 0.00 0.00 66 1011.0
20260505224959 52 23 11.3 15.6 0.00 0.00 0.00 65 1010.6
20260505223918 52 0 9.6 12.2 0.00 0.00 0.00 64 1010.5
20260505222917 53 0 11.3 14.8 0.00 0.00 0.00 64 1010.6
20260505221918 53 0 7.8 10.4 0.00 0.00 0.00 64 1010.7
20260505220918 53 23 7.8 12.2 0.00 0.00 0.00 63 1010.1
20260505215918 54 0 7.0 12.2 0.00 0.00 0.00 63 1010.1
20260505214918 54 0 7.8 12.2 0.00 0.00 0.00 62 1010.2
20260505213917 54 0 13.0 16.5 0.00 0.00 0.00 62 1009.7
20260505212918 55 0 8.7 12.2 0.00 0.00 0.00 62 1009.4
20260505211917 54 23 13.0 17.4 0.00 0.00 0.00 62 1009.6
20260505210917 55 0 13.0 19.1 0.00 0.00 0.00 62 1009.9
20260505205918 55 23 13.9 18.2 0.00 0.00 0.00 62 1009.2
20260505204938 54 23 12.2 16.5 0.00 0.00 0.00 64 1009.3
20260505203918 54 0 13.0 19.1 0.00 0.00 0.00 64 1009.9
20260505202918 54 23 11.3 14.8 0.00 0.00 0.00 64 1010.3
20260505201938 54 0 13.0 15.6 0.00 0.00 0.00 64 1009.1
20260505200918 54 23 7.8 10.4 0.00 0.00 0.00 65 1009.1
20260505195918 54 0 11.3 14.8 0.00 0.00 0.00 65 1009.0
20260505194917 55 23 13.0 16.5 0.00 0.00 0.00 64 1009.2
20260505193938 54 0 14.8 20.0 0.00 0.00 0.00 66 1008.9
20260505192918 54 0 14.8 20.9 0.00 0.00 0.00 67 1009.0
20260505191918 54 0 16.5 20.9 0.00 0.00 0.00 67 1009.1
20260505190918 54 23 10.4 17.4 0.00 0.00 0.00 67 1008.9
20260505185918 54 0 12.2 16.5 0.00 0.00 0.00 68 1008.8
20260505184917 54 0 13.9 19.1 0.00 0.00 0.00 68 1008.9
20260505183938 55 0 12.2 18.2 0.00 0.00 0.00 68 1008.8
20260505182918 55 0 13.9 18.2 0.00 0.00 0.00 68 1008.7
20260505181918 56 338 17.4 19.1 0.00 0.00 0.00 67 1008.7
20260505180917 57 0 12.2 15.6 0.00 0.00 0.00 66 1008.4
20260505175917 57 0 13.9 18.2 0.00 0.00 0.00 66 1008.2
20260505174938 57 0 11.3 15.6 0.00 0.00 0.00 66 1008.2
20260505173917 57 338 13.0 17.4 0.00 0.00 0.00 67 1007.7
20260505172917 57 0 12.2 17.4 0.00 0.00 0.00 68 1007.9
20260505171918 56 23 11.3 16.5 0.00 0.00 0.00 68 1007.7
20260505170917 56 0 9.6 13.0 0.00 0.00 0.00 68 1007.7
20260505165918 56 0 12.2 18.2 0.00 0.00 0.00 69 1007.3
20260505164918 56 0 12.2 15.6 0.00 0.00 0.00 69 1007.3
20260505163918 57 0 10.4 13.0 0.00 0.00 0.00 70 1007.2
20260505162918 57 23 10.4 14.8 0.00 0.00 0.00 70 1006.7
20260505161938 57 0 9.6 11.3 0.00 0.00 0.00 71 1006.5
20260505160918 57 23 13.9 17.4 0.00 0.00 0.00 70 1006.2
20260505152918 59 0 9.6 12.2 0.00 0.00 0.00 71 1005.2
20260505151917 60 0 11.3 13.9 0.00 0.00 0.00 71 1004.8
20260505150919 60 338 15.6 22.6 0.00 0.00 0.00 70 1004.5
20260505124917 68 135 0.9 2.6 0.00 0.00 0.00 71 1002.4
20260505123919 68 90 0.9 1.7 0.00 0.00 0.00 70 1002.5
20260505122918 68 0.0 0.0 0.00 0.00 0.00 70 1002.6
20260505121919 68 0.0 0.0 0.00 0.00 0.00 70 1002.3
20260505120918 68 338 1.7 2.6 0.00 0.00 0.00 70 1002.2
20260505115920 68 315 0.9 2.6 0.00 0.00 0.00 69 1001.9
20260505114918 68 338 4.3 7.0 0.00 0.00 0.00 69 1001.8
20260505113919 69 315 7.0 7.8 0.00 0.00 0.00 68 1001.5
20260505112918 69 248 2.6 6.1 0.00 0.00 0.00 68 1000.7
20260505111920 69 225 3.5 6.1 0.00 0.00 0.00 68 1000.5
20260505110917 70 248 3.5 13.0 0.00 0.00 0.00 67 1000.3
20260505101919 71 203 7.0 11.3 0.00 0.00 0.00 66 1000.1
20260505100940 71 180 8.7 16.5 0.00 0.00 0.00 67 1000.1
20260505095917 71 248 7.8 12.2 0.00 0.00 0.00 66 1000.0
20260505094919 71 203 6.1 11.3 0.00 0.00 0.00 66 1000.0
20260505093918 71 225 6.1 8.7 0.00 0.00 0.00 66 1000.0
20260505092919 71 180 7.8 14.8 0.00 0.00 0.00 66 999.9
20260505091937 71 225 6.1 11.3 0.00 0.00 0.00 66 999.9
20260505090919 71 180 7.0 12.2 0.00 0.00 0.00 66 1000.0
20260505085920 71 203 8.7 14.8 0.00 0.00 0.00 66 1000.2
20260505084917 71 203 7.0 16.5 0.00 0.00 0.00 66 1000.3
20260505083918 71 180 7.8 13.9 0.00 0.00 0.00 66 1000.3
20260505082919 71 203 6.1 11.3 0.00 0.00 0.00 66 1000.5
20260505081917 71 180 7.8 13.0 0.00 0.00 0.00 66 1000.6
20260505080919 71 225 6.1 9.6 0.00 0.00 0.00 66 1000.7
20260505075917 72 203 7.8 11.3 0.00 0.00 0.00 66 1000.7
20260505074939 72 180 7.8 14.8 0.00 0.00 0.00 66 1000.8
20260505073917 72 203 8.7 13.0 0.00 0.00 0.00 66 1001.0
20260505072919 72 203 5.2 8.7 0.00 0.00 0.00 66 1001.2
20260505071919 72 225 6.1 13.0 0.00 0.00 0.00 65 1001.3
20260505070919 72 203 9.6 15.6 0.00 0.00 0.00 65 1001.3
20260505065919 72 225 7.8 14.8 0.00 0.00 0.00 65 1001.4
20260505064937 72 203 7.8 13.9 0.00 0.00 0.00 64 1001.6
20260505063920 73 203 9.6 14.8 0.00 0.00 0.00 64 1001.7
20260505062917 73 180 8.7 16.5 0.00 0.00 0.00 64 1001.7
20260505061919 73 180 7.8 11.3 0.00 0.00 0.00 64 1001.7
20260505060919 73 203 8.7 13.9 0.00 0.00 0.00 63 1001.9
20260505055920 73 203 10.4 16.5 0.00 0.00 0.00 63 1001.8